Weather History for Oshkosh, WI

Change the Weather History Date:

Thursday, February 28, 2013

  Actual Average Record
Temperature  
Mean Temperature 28 °F -  
Max Temperature 33 °F 34 °F 51 °F (1983)
Min Temperature 24 °F 17 °F -12 °F (1962)
Degree Days  
Heating Degree Days 36    
Moisture  
Dew Point 23 °F    
Average Humidity 75    
Maximum Humidity 88    
Minimum Humidity 64    
Precipitation  
Precipitation 0.00 in - - ()
Sea Level Pressure  
Sea Level Pressure 30.01 in    
Wind  
Wind Speed 16 mph (North)    
Max Wind Speed 23 mph    
Max Gust Speed 31 mph    
Visibility 9 miles    
Events Snow    
Averages and records for this station are not official NWS values.
T = Trace of Precipitation, MM = Missing Value Source: NWS Daily Summary

Daily Weather History Graph

Daily Weather History Graph

Search for Another Location

Airport:

Trip Planner

Search our weather history database for the weather conditions in past years. The results will help you decide how hot, cold, wet, or windy it might be!

Date:

Astronomy

Feb. 28, 2013 Rise Set
Actual Time 6:32 AM CST 5:41 PM CST
Civil Twilight 6:03 AM CST 6:10 PM CST
Nautical Twilight 5:30 AM CST 6:44 PM CST
Astronomical Twilight 4:56 AM CST 7:17 PM CST
Moon 9:17 PM CST (2/28) 7:33 AM CST (2/28)
Length of Visible Light 12h 07m
Length of Day
11h 09m
Waning Gibbous, 90% of the Moon is Illuminated
Feb 28
Waning Gibbous
Mar 4
Last Quarter
Mar 11
New
Mar 19
First Quarter
Mar 27
Full

Hourly Weather History & Observations

Time (CST) Temp. Windchill Dew Point Humidity Pressure Visibility Wind Dir Wind Speed Gust Speed Precip Events Conditions
12:42 AM 32.0 °F 22.5 °F 28.4 °F 87% 29.78 in 5.0 mi North 12.7 mph - 0.00 in   Overcast
12:53 AM 32.0 °F 22.5 °F 28.9 °F 88% 29.83 in 4.0 mi North 12.7 mph - 0.00 in   Overcast
1:53 AM 33.1 °F 23.0 °F 28.0 °F 82% 29.84 in 10.0 mi North 15.0 mph - N/A   Overcast
2:53 AM 32.0 °F 20.8 °F 28.0 °F 85% 29.84 in 7.0 mi North 17.3 mph - N/A   Overcast
3:53 AM 32.0 °F 21.2 °F 27.0 °F 82% 29.87 in 10.0 mi North 16.1 mph - N/A   Overcast
4:53 AM 32.0 °F 21.6 °F 26.1 °F 79% 29.89 in 10.0 mi North 15.0 mph - N/A   Overcast
6:53 AM 32.0 °F 20.8 °F 27.0 °F 82% 29.93 in 10.0 mi North 17.3 mph - N/A   Overcast
7:53 AM 32.0 °F 20.1 °F 26.1 °F 79% 29.96 in 10.0 mi North 19.6 mph - N/A   Overcast
8:53 AM 32.0 °F 19.8 °F 24.1 °F 73% 29.98 in 10.0 mi North 20.7 mph - 0.00 in   Overcast
9:19 AM 32.0 °F 20.1 °F 24.8 °F 75% 29.95 in 9.0 mi North 19.6 mph - N/A   Overcast
9:28 AM 32.0 °F 20.8 °F 24.8 °F 75% 29.95 in 10.0 mi North 17.3 mph - N/A   Overcast
9:53 AM 32.0 °F 19.5 °F 24.1 °F 73% 30.00 in 10.0 mi North 21.9 mph 28.8 mph N/A   Overcast
10:21 AM 32.0 °F 20.8 °F 24.8 °F 75% 29.96 in 10.0 mi North 17.3 mph 31.1 mph N/A   Mostly Cloudy
10:53 AM 32.0 °F 19.5 °F 24.1 °F 73% 30.01 in 10.0 mi North 21.9 mph 25.3 mph N/A   Overcast
11:53 AM 32.0 °F 19.2 °F 23.0 °F 69% 30.02 in 10.0 mi North 23.0 mph 27.6 mph N/A   Overcast
12:53 PM 30.9 °F 19.8 °F 23.0 °F 72% 30.03 in 10.0 mi North 16.1 mph 25.3 mph N/A   Overcast
1:53 PM 30.0 °F 18.3 °F 21.9 °F 72% 30.03 in 10.0 mi North 17.3 mph - N/A   Overcast
2:50 PM 30.2 °F 20.2 °F 21.2 °F 69% 30.01 in 10.0 mi NNE 12.7 mph - N/A   Overcast
2:53 PM 30.9 °F 19.8 °F 21.0 °F 67% 30.05 in 10.0 mi NNE 16.1 mph - N/A   Overcast
3:14 PM 30.2 °F 18.5 °F 19.4 °F 64% 30.01 in 10.0 mi NNE 17.3 mph - N/A   Overcast
3:53 PM 30.0 °F 18.3 °F 21.0 °F 69% 30.07 in 10.0 mi North 17.3 mph - N/A   Overcast
4:53 PM 30.0 °F 19.5 °F 19.0 °F 64% 30.09 in 10.0 mi NNE 13.8 mph - N/A   Overcast
5:53 PM 28.9 °F 17.7 °F 19.0 °F 67% 30.11 in 10.0 mi North 15.0 mph - N/A   Overcast
6:53 PM 28.0 °F 16.5 °F 18.0 °F 66% 30.14 in 10.0 mi NNE 15.0 mph 21.9 mph N/A   Overcast
7:53 PM 26.1 °F 16.2 °F 19.9 °F 78% 30.15 in 4.0 mi NE 10.4 mph - 0.00 in Snow Light Snow
8:53 PM 25.0 °F 14.8 °F 19.0 °F 78% 30.17 in 4.0 mi NE 10.4 mph - 0.00 in Snow Light Snow
9:53 PM 25.0 °F 12.6 °F 17.1 °F 72% 30.18 in 10.0 mi NNE 15.0 mph - 0.00 in   Overcast
10:21 PM 24.8 °F 14.0 °F 17.6 °F 74% 30.13 in 7.0 mi North 11.5 mph - 0.00 in Snow Light Snow
10:41 PM 24.8 °F 14.0 °F 17.6 °F 74% 30.13 in 6.0 mi North 11.5 mph - 0.00 in Snow Light Snow
10:53 PM 24.1 °F 13.7 °F 17.1 °F 75% 30.18 in 7.0 mi North 10.4 mph - 0.00 in Snow Light Snow
11:53 PM 24.1 °F 13.7 °F 17.1 °F 75% 30.17 in 5.0 mi North 10.4 mph - 0.00 in Snow Light Snow